Napa County, CA

7:46 AM PDT on April 23, 2017 (GMT -0700)
Napa County

Weather History for KAPC - February, 2015

Change the Weather History Date:

Thursday, February 26, 2015

  Actual Average Record
Temperature  
Mean Temperature 54 °F 51 °F  
Max Temperature 70 °F 62 °F 72 °F (2002)
Min Temperature 37 °F 40 °F 26 °F (2011)
Degree Days  
Heating Degree Days 11    
Month to date heating degree days 300  
Since 1 July heating degree days 1696  
Cooling Degree Days 0    
Month to date cooling degree days 0  
Year to date cooling degree days 0  
Growing Degree Days 4 (Base 50)    
Moisture  
Dew Point 44 °F    
Average Humidity 77    
Maximum Humidity 100    
Minimum Humidity 53    
Precipitation  
Precipitation 0.00 in - 2.44 in (1919)
Month to date precipitation 2.37  
Year to date precipitation 2.37  
Sea Level Pressure  
Sea Level Pressure 29.99 in    
Wind  
Wind Speed 6 mph (WNW)    
Max Wind Speed 18 mph    
Max Gust Speed 23 mph    
Visibility 8 miles    
Events      
T = Trace of Precipitation, MM = Missing Value Source: NWS Daily Summary

Daily Weather History Graph

Daily Weather History Graph

Search for Another Location

Airport or City:

Trip Planner

Search our weather history database for the weather conditions in past years. The results will help you decide how hot, cold, wet, or windy it might be!

Date:

Astronomy

Feb. 26, 2015 Rise Set
Actual Time 6:45 AM PST 5:59 PM PST
Civil Twilight 6:18 AM PST 6:25 PM PST
Nautical Twilight 5:48 AM PST 6:56 PM PST
Astronomical Twilight 5:17 AM PST 7:27 PM PST
Moon 12:06 PM PST (2/26) 1:43 AM PST (2/26)
Length of Visible Light 12h 07m
Length of Day
11h 13m
First Quarter, 61% of the Moon is Illuminated
Feb 26
First Quarter
Mar 5
Full
Mar 13
Last Quarter
Mar 20
New
Mar 27
First Quarter

Hourly Weather History & Observations

Time (PST) Temp. Windchill Dew Point Humidity Pressure Visibility Wind Dir Wind Speed Gust Speed Precip Events Conditions
12:54 AM 43.0 °F 40.3 °F 42.1 °F 97% 30.05 in 10.0 mi North 4.6 mph - N/A   Clear
1:54 AM 43.0 °F 40.3 °F 41.0 °F 93% 30.06 in 10.0 mi NNW 4.6 mph - N/A   Clear
2:54 AM 43.0 °F 41.3 °F 41.0 °F 93% 30.04 in 10.0 mi NNE 3.5 mph - N/A   Clear
3:41 AM 39.9 °F - 39.0 °F 97% 30.07 in 1.8 mi Calm Calm - N/A   Clear
3:44 AM 39.0 °F - 39.0 °F 100% 30.07 in 1.0 mi Calm Calm - N/A   Mist
3:51 AM 39.2 °F - 39.2 °F 100% 30.07 in 1.8 mi Calm Calm - N/A   Partly Cloudy
3:54 AM 39.9 °F - 39.0 °F 97% 30.05 in 5.0 mi Calm Calm - N/A   Clear
4:18 AM 37.9 °F 35.5 °F 37.9 °F 100% 30.07 in 1.5 mi WNW 3.5 mph - N/A   Partly Cloudy
4:28 AM 39.9 °F - 39.0 °F 97% 30.06 in 3.0 mi Calm Calm - N/A   Partly Cloudy
4:54 AM 39.0 °F - 39.0 °F 100% 30.04 in 9.0 mi Calm Calm - N/A   Clear
5:27 AM 37.9 °F 35.5 °F 37.9 °F 100% 30.06 in 1.8 mi ESE 3.5 mph - N/A   Clear
5:39 AM 39.0 °F 36.8 °F 39.0 °F 100% 30.06 in 1.0 mi East 3.5 mph - N/A   Mist
5:43 AM 39.0 °F 36.8 °F 39.0 °F 100% 30.07 in 3.0 mi ENE 3.5 mph - N/A   Partly Cloudy
5:54 AM 39.0 °F 36.8 °F 37.9 °F 96% 30.04 in 9.0 mi NW 3.5 mph - N/A   Partly Cloudy
6:54 AM 41.0 °F 39.0 °F 41.0 °F 100% 30.04 in 6.0 mi NNE 3.5 mph - N/A   Clear
7:54 AM 46.9 °F - 45.0 °F 93% 30.05 in 10.0 mi Calm Calm - N/A   Clear
8:54 AM 51.1 °F - 46.9 °F 86% 30.06 in 10.0 mi Calm Calm - N/A   Clear
9:54 AM 55.9 °F - 48.9 °F 77% 30.05 in 10.0 mi Calm Calm - N/A   Clear
10:54 AM 57.9 °F - 48.0 °F 70% 30.04 in 10.0 mi SW 5.8 mph - N/A   Clear
11:54 AM 60.1 °F - 48.0 °F 64% 30.01 in 10.0 mi Calm Calm - N/A   Clear
12:54 PM 64.9 °F - 50.0 °F 58% 29.96 in 10.0 mi Calm Calm - N/A   Clear
1:54 PM 69.1 °F - 51.1 °F 53% 29.93 in 10.0 mi SSW 11.5 mph - N/A   Clear
2:54 PM 70.0 °F - 51.1 °F 51% 29.92 in 10.0 mi West 12.7 mph - N/A   Clear
3:54 PM 68.0 °F - 52.0 °F 56% 29.90 in 10.0 mi West 12.7 mph - N/A   Clear
4:54 PM 63.0 °F - 51.1 °F 65% 29.89 in 10.0 mi West 16.1 mph - N/A   Clear
5:54 PM 60.1 °F - 51.1 °F 72% 29.89 in 10.0 mi Calm Calm - N/A   Clear
6:54 PM 57.0 °F - 48.9 °F 74% 29.88 in 10.0 mi West 10.4 mph - N/A   Clear
7:54 PM 55.0 °F - 48.0 °F 77% 29.88 in 10.0 mi WNW 9.2 mph - N/A   Clear
8:54 PM 54.0 °F - 46.9 °F 77% 29.88 in 10.0 mi West 8.1 mph - N/A   Clear
9:54 PM 55.0 °F - 46.0 °F 72% 29.88 in 10.0 mi West 15.0 mph - N/A   Clear
10:54 PM 53.1 °F - 45.0 °F 74% 29.89 in 10.0 mi WNW 9.2 mph - N/A   Clear
11:54 PM 51.1 °F - 46.0 °F 83% 29.88 in 10.0 mi NW 9.2 mph - N/A   Clear